This is the latest recevied weather packets stored in our database for station/object K6CED. If no packets are shown the sender has not sent any weather packets the latest 10 day(s).
| Time | Temp. | Humidity | Pressure | Rain* | Wind** | Luminosity | Snow |
|---|---|---|---|---|---|---|---|
| 1778103721 | 25.56° C | 46% | 1017.8 hPa | 0 mm | - | 774 W/m² | - |
| 1778103420 | 26.11° C | 45% | 1017.8 hPa | 0 mm | - | 782 W/m² | - |
| 1778103117 | 26.11° C | 43% | 1018 hPa | 0 mm | - | 793 W/m² | - |
| 1778102814 | 26.11° C | 37% | 1018.1 hPa | 0 mm | - | 804 W/m² | - |
| 1778102509 | 25.56° C | 37% | 1018.2 hPa | 0 mm | - | 814 W/m² | - |
| 1778102204 | 25.56° C | 38% | 1018 hPa | 0 mm | - | 820 W/m² | - |
| 1778101901 | 25° C | 38% | 1018.1 hPa | 0 mm | - | 831 W/m² | - |
| 1778101598 | 25° C | 39% | 1018.1 hPa | 0 mm | - | 840 W/m² | - |
| 1778101295 | 25° C | 39% | 1018 hPa | 0 mm | - | 848 W/m² | - |
| 1778100992 | 25° C | 39% | 1018.4 hPa | 0 mm | - | 855 W/m² | - |
| 1778100686 | 25° C | 40% | 1018.4 hPa | 0 mm | - | 861 W/m² | - |
| 1778100385 | 24.44° C | 41% | 1018.4 hPa | 0 mm | - | 869 W/m² | - |
| 1778100081 | 24.44° C | 41% | 1018.5 hPa | 0 mm | - | 875 W/m² | - |
| 1778099780 | 24.44° C | 42% | 1018.6 hPa | 0 mm | - | 882 W/m² | - |
| 1778099476 | 23.33° C | 43% | 1018.6 hPa | 0 mm | - | 885 W/m² | - |
| 1778099174 | 23.33° C | 44% | 1018.7 hPa | 0 mm | - | 889 W/m² | - |
| 1778098870 | 22.78° C | 42% | 1018.7 hPa | 0 mm | - | 893 W/m² | - |
| 1778098567 | 23.89° C | 44% | 1018.8 hPa | 0 mm | - | 898 W/m² | - |
| 1778098264 | 22.78° C | 44% | 1018.9 hPa | 0 mm | - | 903 W/m² | - |
| 1778097960 | 22.78° C | 43% | 1018.8 hPa | 0 mm | - | 906 W/m² | - |
| 1778097657 | 22.22° C | 44% | 1018.9 hPa | 0 mm | - | 908 W/m² | - |
| 1778097354 | 22.78° C | 43% | 1019 hPa | 0 mm | - | 909 W/m² | - |
| 1778097050 | 22.78° C | 44% | 1019.1 hPa | 0 mm | - | 911 W/m² | - |
| 1778096748 | 22.78° C | 43% | 1019.3 hPa | 0 mm | - | 910 W/m² | - |
| 1778096444 | 22.22° C | 44% | 1019.3 hPa | 0 mm | - | 911 W/m² | - |
* Rain latest hour (hover to see other rain measurements)
** Current wind speed in m/s (hover to see current wind gust speed)